| time (UTC) | temp F | wind direction | speed MPH | gust MPH | rain 1hr in | rain 24hr in | rain mn in | humidity % | barometer mb |
| 20260504231552 | 77 | 92 | 0.0 | 4.0 | 0.00 | 0.00 | 0.00 | 55 | 1008.7 |
| 20260504230041 | 78 | 128 | 0.0 | 5.0 | 0.00 | 0.00 | 0.00 | 55 | 1008.9 |
| 20260504224540 | 78 | 140 | 3.0 | 8.0 | 0.00 | 0.00 | 0.00 | 52 | 1009.0 |
| 20260504223040 | 78 | 158 | 1.0 | 7.0 | 0.00 | 0.00 | 0.00 | 54 | 1009.1 |
| 20260504221539 | 78 | 90 | 2.0 | 7.0 | 0.00 | 0.00 | 0.00 | 53 | 1009.2 |
| 20260504220037 | 79 | 209 | 1.0 | 8.0 | 0.00 | 0.00 | 0.00 | 52 | 1009.3 |
| 20260504214539 | 79 | 112 | 1.0 | 8.0 | 0.00 | 0.00 | 0.00 | 51 | 1009.4 |
| 20260504213034 | 79 | 32 | 2.0 | 9.0 | 0.00 | 0.00 | 0.00 | 51 | 1009.7 |
| 20260504211532 | 79 | 265 | 1.0 | 7.0 | 0.00 | 0.00 | 0.00 | 51 | 1009.7 |
| 20260504210031 | 79 | 69 | 2.0 | 8.0 | 0.00 | 0.00 | 0.00 | 50 | 1009.7 |
| 20260504204604 | 79 | 26 | 3.0 | 13.0 | 0.00 | 0.00 | 0.00 | 49 | 1010.1 |
| 20260504203030 | 79 | 175 | 2.0 | 8.0 | 0.00 | 0.00 | 0.00 | 52 | 1010.3 |
| 20260504201524 | 78 | 82 | 2.0 | 11.0 | 0.00 | 0.00 | 0.00 | 50 | 1010.7 |
| 20260504200029 | 79 | 223 | 2.0 | 10.0 | 0.00 | 0.00 | 0.00 | 50 | 1010.9 |
| 20260504194522 | 78 | 253 | 1.0 | 10.0 | 0.00 | 0.00 | 0.00 | 51 | 1011.4 |
| 20260504193024 | 79 | 154 | 2.0 | 9.0 | 0.00 | 0.00 | 0.00 | 52 | 1011.6 |
| 20260504191518 | 78 | 13 | 3.0 | 12.0 | 0.00 | 0.00 | 0.00 | 52 | 1011.7 |
| 20260504190017 | 78 | 125 | 0.0 | 11.0 | 0.00 | 0.00 | 0.00 | 52 | 1011.8 |
| 20260504184514 | 78 | 348 | 2.0 | 9.0 | 0.00 | 0.00 | 0.00 | 49 | 1012.1 |
| 20260504183014 | 78 | 273 | 3.0 | 8.0 | 0.00 | 0.00 | 0.00 | 49 | 1012.2 |
| 20260504181513 | 78 | 159 | 2.0 | 7.0 | 0.00 | 0.00 | 0.00 | 51 | 1012.3 |
| 20260504180010 | 78 | 247 | 1.0 | 10.0 | 0.00 | 0.00 | 0.00 | 54 | 1012.6 |
| 20260504174508 | 78 | 223 | 1.0 | 6.0 | 0.00 | 0.00 | 0.00 | 54 | 1012.9 |
| 20260504173006 | 77 | 234 | 1.0 | 12.0 | 0.00 | 0.00 | 0.00 | 51 | 1013.0 |
| 20260504171516 | 77 | 130 | 3.0 | 14.0 | 0.00 | 0.00 | 0.00 | 52 | 1013.2 |
| 20260504081550 | 57 | 109 | 0.0 | 0.0 | 0.00 | 0.00 | 0.00 | 85 | 1014.0 |
| 20260504044527 | 60 | 113 | 0.0 | 0.0 | 0.00 | 0.00 | 0.00 | 82 | 1015.0 |
| 20260504043026 | 61 | 113 | 0.0 | 0.0 | 0.00 | 0.00 | 0.00 | 81 | 1015.0 |
| 20260504041529 | 61 | 113 | 0.0 | 0.0 | 0.00 | 0.00 | 0.00 | 80 | 1015.2 |
| 20260504040025 | 62 | 113 | 0.0 | 0.0 | 0.00 | 0.00 | 0.00 | 80 | 1015.3 |
| 20260504034523 | 62 | 113 | 0.0 | 0.0 | 0.00 | 0.00 | 0.00 | 79 | 1015.5 |
| 20260504033025 | 63 | 109 | 0.0 | 0.0 | 0.00 | 0.00 | 0.00 | 78 | 1015.5 |
| 20260504031523 | 63 | 107 | 0.0 | 0.0 | 0.00 | 0.00 | 0.00 | 77 | 1015.5 |
| 20260504030035 | 64 | 106 | 0.0 | 0.0 | 0.00 | 0.00 | 0.00 | 76 | 1015.6 |
| 20260504024523 | 64 | 106 | 0.0 | 0.0 | 0.00 | 0.00 | 0.00 | 76 | 1015.4 |
| 20260504023022 | 65 | 106 | 0.0 | 0.0 | 0.00 | 0.00 | 0.00 | 75 | 1015.2 |
| 20260504021527 | 66 | 106 | 0.0 | 1.0 | 0.00 | 0.00 | 0.00 | 75 | 1015.1 |
| 20260504020021 | 66 | 106 | 0.0 | 0.0 | 0.00 | 0.00 | 0.00 | 72 | 1015.0 |
| 20260504014521 | 67 | 105 | 0.0 | 0.0 | 0.00 | 0.00 | 0.00 | 71 | 1014.9 |
| 20260504013020 | 69 | 105 | 0.0 | 0.0 | 0.00 | 0.00 | 0.00 | 68 | 1014.9 |
| 20260504011520 | 70 | 105 | 0.0 | 0.0 | 0.00 | 0.00 | 0.00 | 66 | 1014.9 |
| 20260504010021 | 71 | 105 | 0.0 | 0.0 | 0.00 | 0.00 | 0.00 | 64 | 1014.8 |
| 20260504004522 | 72 | 105 | 0.0 | 1.0 | 0.00 | 0.00 | 0.00 | 60 | 1014.8 |
| 20260504003018 | 74 | 105 | 0.0 | 1.0 | 0.00 | 0.00 | 0.00 | 57 | 1014.8 |
| 20260504001517 | 75 | 360 | 0.0 | 1.0 | 0.00 | 0.00 | 0.00 | 54 | 1014.8 |
| 20260504000016 | 76 | 32 | 0.0 | 2.0 | 0.00 | 0.00 | 0.00 | 52 | 1015.0 |
| 20260503234526 | 77 | 29 | 1.0 | 5.0 | 0.00 | 0.00 | 0.00 | 49 | 1015.0 |
| 20260503233015 | 77 | 127 | 2.0 | 8.0 | 0.00 | 0.00 | 0.00 | 50 | 1015.0 |